This is the latest recevied weather packets stored in our database for station/object KC3ULW-13. If no packets are shown the sender has not sent any weather packets the latest 10 day(s).
| Time | Temp. | Humidity | Pressure | Rain* | Wind** | Luminosity | Snow |
|---|---|---|---|---|---|---|---|
| 1777549156 | 8.89° C | 86% | 1012.6 hPa | 0 mm | - | 44 W/m² | - |
| 1777548852 | 8.89° C | 86% | 1012.6 hPa | 0 mm | - | 43 W/m² | - |
| 1777548549 | 8.89° C | 86% | 1012.8 hPa | 0 mm | - | 53 W/m² | - |
| 1777548246 | 8.89° C | 86% | 1012.6 hPa | 0 mm | - | 42 W/m² | - |
| 1777547943 | 8.89° C | 86% | 1012.6 hPa | 0 mm | - | 33 W/m² | - |
| 1777547638 | 8.89° C | 86% | 1012.5 hPa | 0 mm | - | 31 W/m² | - |
| 1777547335 | 8.89° C | 86% | 1012.4 hPa | 0 mm | - | 28 W/m² | - |
| 1777547033 | 8.89° C | 86% | 1012.5 hPa | 0 mm | - | 24 W/m² | - |
| 1777546730 | 8.89° C | 86% | 1012.6 hPa | 0 mm | - | 22 W/m² | - |
| 1777546427 | 8.89° C | 86% | 1012.4 hPa | 0 mm | - | 18 W/m² | - |
| 1777546124 | 8.89° C | 86% | 1012.5 hPa | 0 mm | - | 14 W/m² | - |
| 1777545819 | 8.89° C | 86% | 1012.4 hPa | 0 mm | - | 11 W/m² | - |
| 1777545517 | 8.89° C | 87% | 1012.5 hPa | 0 mm | - | 9 W/m² | - |
| 1777545213 | 8.89° C | 87% | 1012.6 hPa | 0 mm | - | 6 W/m² | - |
| 1777544912 | 9.44° C | 87% | 1012.4 hPa | 0 mm | - | 4 W/m² | - |
| 1777544607 | 9.44° C | 87% | 1012.3 hPa | 0 mm | - | 1 W/m² | - |
| 1777544304 | 9.44° C | 87% | 1012.7 hPa | 0 mm | - | 0 W/m² | - |
| 1777544001 | 9.44° C | 87% | 1012.4 hPa | 0 mm | - | 0 W/m² | - |
| 1777543697 | 9.44° C | 87% | 1012.9 hPa | 0 mm | - | 0 W/m² | - |
| 1777543394 | 9.44° C | 87% | 1012.7 hPa | 0 mm | - | 0 W/m² | - |
| 1777543089 | 9.44° C | 88% | 1012.7 hPa | 0 mm | - | 0 W/m² | - |
| 1777542786 | 9.44° C | 88% | 1012.7 hPa | 0 mm | - | 0 W/m² | - |
| 1777542482 | 9.44° C | 88% | 1012.8 hPa | 0 mm | - | 0 W/m² | - |
| 1777542178 | 9.44° C | 89% | 1012.7 hPa | 0 mm | - | 0 W/m² | - |
| 1777541876 | 9.44° C | 89% | 1012.8 hPa | 0 mm | - | 0 W/m² | - |
* Rain latest hour (hover to see other rain measurements)
** Current wind speed in m/s (hover to see current wind gust speed)